[[{"header":{"parameterUnit":"m.s-1","parameterCategory":1,"la1":30.2991,"la2":30.254,"lo1":-89.0895,"lo2":-89.0444,"dy":0.0017,"dx":0.0017,"nx":28,"ny":28,"refTime":"2023-08-02T03:00:00:Z","depth":0,"parameterNumber":2,"parameterNumberName":"U-component_of_WINDS"},"data":[0,0,0,0,0,0,0,0,0,0,0,0,0,0,0,0,0,0,0,0,0,0,0,0,0,0,0,0,0,0,0,0,0,0,0,0,0,0,0,0,0,0,0,0,0,0,0,0,0,0,0,0,0,0,0,0,0,0,-0.1042,-0.1041,0,-0.0985,-0.0984,-0.0984,-0.0946,-0.0945,-0.0945,-0.0945,-0.0888,-0.0887,-0.0886,0,0,0,0,0,0,0,0,0,0,0,0,0,-0.1121,-0.112,-0.1042,-0.1041,-0.1041,-0.0985,-0.0984,-0.0984,-0.0946,-0.0945,-0.0945,-0.0945,-0.0889,-0.0887,-0.0886,0,0,0,0,0,0,0,0,0,0,0,0,0,-0.1078,-0.1119,-0.1042,-0.1015,-0.1012,-0.0985,-0.0984,-0.0983,-0.0946,-0.0945,-0.0945,-0.0945,-0.0889,-0.0887,-0.0885,-0.0882,0,0,-0.088,-0.0879,0,0,0,0,0,0,0,0,-0.108,-0.1075,-0.102,-0.1017,-0.1013,-0.0972,-0.0991,-0.0949,-0.0946,-0.0971,-0.0945,-0.0945,-0.0917,-0.0912,-0.0903,-0.0879,-0.0876,-0.0879,-0.0878,-0.0877,-0.0877,0,0,0,0,0,0,0,-0.1083,-0.1077,-0.102,-0.1019,-0.1015,-0.1007,-0.1,-0.0983,-0.0947,-0.0969,-0.0966,-0.096,-0.0915,-0.0905,-0.0901,-0.0876,-0.0879,-0.0878,-0.0877,-0.0876,-0.0847,-0.0847,0,0,0,0,0,0,-0.109,-0.108,-0.1021,-0.1018,-0.1046,-0.1005,-0.0998,-0.0986,-0.0947,-0.094,-0.096,-0.0958,-0.0908,-0.0903,-0.0899,-0.0892,-0.0877,-0.0876,-0.0875,-0.0847,-0.0847,-0.0847,0,0,0,0,0,0,-0.1092,-0.1085,-0.1024,-0.1048,-0.1039,-0.1005,-0.0991,-0.0985,-0.0975,-0.094,-0.0934,-0.0956,-0.0907,-0.0902,-0.0886,-0.089,-0.0875,-0.0873,-0.0846,-0.0847,-0.0847,-0.0879,0,0,0,0,0,0,-0.1094,-0.1086,-0.1084,-0.1048,-0.1038,-0.1011,-0.0991,-0.0984,-0.0971,-0.0968,-0.0935,-0.0929,-0.0907,-0.0889,-0.0884,-0.0887,-0.0872,-0.0846,-0.0846,-0.0847,-0.0878,-0.0881,-0.0883,0,0,0,0,0,-0.1097,-0.1095,-0.1084,-0.1077,-0.1034,-0.1012,-0.1006,-0.098,-0.0972,-0.0969,-0.0947,-0.093,-0.089,-0.0888,-0.0882,-0.0884,-0.0845,-0.0846,-0.0847,-0.0876,-0.088,-0.0883,0,0,0,0,0,0,-0.1133,-0.109,-0.1077,-0.1063,-0.1041,-0.1005,-0.1002,-0.0985,-0.0966,-0.0964,-0.0933,-0.0926,-0.0914,-0.0897,-0.0896,-0.0879,-0.0866,-0.0865,-0.089,-0.0893,-0.0896,-0.0901,-0.087,0,0,0,0,0,-0.1139,-0.1123,-0.1087,-0.1078,-0.1068,-0.1037,-0.1026,-0.1008,-0.0984,-0.0975,-0.0952,-0.093,-0.0913,-0.0902,-0.0884,-0.0875,-0.0868,-0.0874,-0.0877,-0.0879,-0.0879,-0.0874,-0.0877,-0.085,-0.085,-0.085,0,0,-0.1151,-0.1126,-0.1118,-0.1085,-0.1066,-0.1051,-0.1029,-0.1015,-0.1004,-0.0973,-0.0957,-0.094,-0.0913,-0.0901,-0.0895,-0.0887,-0.0885,-0.088,-0.0883,-0.0881,-0.0875,-0.0878,-0.088,-0.0851,-0.0851,-0.0851,0,0,-0.1167,-0.1146,-0.1137,-0.1118,-0.1089,-0.1069,-0.1067,-0.1033,-0.102,-0.1004,-0.0981,-0.0968,-0.0938,-0.0921,-0.0908,-0.0918,-0.0902,-0.0913,-0.0928,-0.0924,-0.0926,-0.0927,-0.0932,-0.0933,-0.0913,-0.0913,-0.0913,0,-0.1187,-0.1163,-0.1134,-0.1121,-0.1107,-0.1078,-0.107,-0.1053,-0.102,-0.1012,-0.1004,-0.0967,-0.0947,-0.0931,-0.0934,-0.0924,-0.0921,-0.0917,-0.0928,-0.0929,-0.093,-0.0934,-0.0936,-0.0915,-0.0915,-0.0915,-0.0915,0,-0.1189,-0.1173,-0.1169,-0.1137,-0.1123,-0.1112,-0.1083,-0.1073,-0.1056,-0.1037,-0.1021,-0.0996,-0.0973,-0.0968,-0.0952,-0.095,-0.0946,-0.0933,-0.0919,-0.0935,-0.0938,-0.0939,-0.0917,-0.0917,-0.0916,-0.0916,0,0,-0.1225,-0.1178,-0.1177,-0.1163,-0.1129,-0.1117,-0.1105,-0.1082,-0.1074,-0.1053,-0.1043,-0.1019,-0.1007,-0.0992,-0.0974,-0.097,-0.098,-0.0957,-0.0956,-0.0963,-0.0978,-0.0988,-0.099,-0.0969,-0.0969,-0.0969,-0.098,0,-0.1236,-0.1212,-0.1187,-0.1172,-0.1158,-0.113,-0.112,-0.1099,-0.1081,-0.1066,-0.1046,-0.103,-0.1015,-0.1007,-0.1001,-0.098,-0.0983,-0.0979,-0.096,-0.096,-0.0968,-0.0992,-0.1002,-0.1014,-0.0981,-0.0981,-0.0981,0,-0.1246,-0.1225,-0.1209,-0.1178,-0.1171,-0.1162,-0.1139,-0.1125,-0.1101,-0.1088,-0.1073,-0.1053,-0.104,-0.1028,-0.101,-0.1008,-0.0999,-0.0987,-0.0987,-0.0985,-0.0972,-0.0991,-0.1017,-0.1019,-0.0983,-0.0983,-0.0983,0,-0.1275,-0.1243,-0.123,-0.1218,-0.1181,-0.1176,-0.116,-0.1135,-0.1123,-0.1104,-0.1096,-0.1075,-0.1064,-0.1049,-0.1025,-0.1018,-0.101,-0.0996,-0.1,-0.1001,-0.1,-0.1,-0.1026,-0.0993,-0.0993,-0.0993,-0.0993,0,-0.129,-0.1282,-0.1242,-0.1234,-0.1224,-0.1195,-0.1187,-0.1169,-0.1147,-0.1136,-0.1111,-0.1101,-0.1069,-0.1056,-0.1036,-0.1025,-0.102,-0.101,-0.1005,-0.1013,-0.1014,-0.1007,-0.1006,-0.0993,-0.0993,-0.0993,-0.0993,0,-0.1321,-0.1294,-0.1278,-0.1244,-0.1235,-0.1229,-0.1201,-0.1192,-0.1172,-0.1158,-0.1154,-0.1123,-0.1106,-0.108,-0.1055,-0.1042,-0.1035,-0.1026,-0.1043,-0.104,-0.1046,-0.1046,-0.1068,-0.107,-0.1036,-0.1036,-0.1036,0,-0.1333,-0.1326,-0.1291,-0.1281,-0.1266,-0.1251,-0.1238,-0.121,-0.1198,-0.117,-0.1166,-0.1147,-0.113,-0.1104,-0.108,-0.1061,-0.1053,-0.1061,-0.105,-0.1058,-0.1054,-0.1055,-0.1054,-0.1065,-0.1065,-0.1065,-0.1066,0,-0.1357,-0.1345,-0.1327,-0.1305,-0.1291,-0.1273,-0.1254,-0.1247,-0.1215,-0.1203,-0.1185,-0.1172,-0.1147,-0.1128,-0.1106,-0.1091,-0.1074,-0.107,-0.107,-0.1078,-0.1088,-0.1083,-0.1051,-0.1069,-0.1069,-0.1069,-0.1069,-0.1068,-0.138,-0.1372,-0.1347,-0.1328,-0.1311,-0.1293,-0.1284,-0.1263,-0.1247,-0.1224,-0.1208,-0.1191,-0.1168,-0.1137,-0.1122,-0.1109,-0.1102,-0.1102,-0.1102,-0.1102,-0.1105,-0.1089,-0.1105,-0.1105,-0.1105,-0.1105,-0.1105,0,-0.1403,-0.1386,-0.1369,-0.1342,-0.1328,-0.1312,-0.129,-0.128,-0.1265,-0.1244,-0.1228,-0.1208,-0.119,-0.1165,-0.1146,-0.114,-0.1132,-0.1136,-0.1137,-0.1134,-0.1113,-0.1115,-0.1143,-0.1143,-0.1143,-0.1143,-0.1143,-0.1143,-0.1414,-0.1401,-0.1385,-0.1364,-0.1346,-0.1329,-0.1317,-0.1302,-0.1285,-0.1263,-0.1248,-0.1232,-0.121,-0.1188,-0.1172,-0.1165,-0.1159,-0.1166,-0.1157,-0.1139,-0.1135,-0.1132,-0.1134,-0.1165,-0.1165,-0.1179,-0.1179,-0.1179]},{"header":{"parameterUnit":"m.s-1","parameterCategory":1,"la1":30.2991,"la2":30.254,"lo1":-89.0895,"lo2":-89.0444,"dy":0.0017,"dx":0.0017,"nx":28,"ny":28,"refTime":"2023-08-02T03:00:00:Z","depth":0,"parameterNumber":3,"parameterNumberName":"V-component_of_WINDS"},"data":[0,0,0,0,0,0,0,0,0,0,0,0,0,0,0,0,0,0,0,0,0,0,0,0,0,0,0,0,0,0,0,0,0,0,0,0,0,0,0,0,0,0,0,0,0,0,0,0,0,0,0,0,0,0,0,0,0,0,4.8311,4.831,0,4.8265,4.8265,4.8264,4.821,4.8209,4.8208,4.8207,4.8158,4.8157,4.8157,0,0,0,0,0,0,0,0,0,0,0,0,0,4.8348,4.8348,4.8311,4.831,4.8309,4.8265,4.8265,4.8264,4.821,4.8209,4.8208,4.8207,4.8158,4.8157,4.8157,0,0,0,0,0,0,0,0,0,0,0,0,0,4.832,4.8348,4.8311,4.8277,4.8274,4.8265,4.8265,4.8264,4.821,4.8209,4.8208,4.8207,4.8158,4.8157,4.8157,4.8176,0,0,4.8154,4.8154,0,0,0,0,0,0,0,0,4.8322,4.8319,4.8283,4.828,4.8276,4.8242,4.826,4.8234,4.8211,4.8234,4.8207,4.8206,4.8187,4.8183,4.8178,4.8174,4.8172,4.8154,4.8154,4.8153,4.8153,0,0,0,0,0,0,0,4.8324,4.8321,4.8292,4.8282,4.8278,4.8264,4.8258,4.8255,4.8218,4.8232,4.8228,4.8224,4.8184,4.8178,4.8176,4.8171,4.8154,4.8153,4.8153,4.8153,4.8181,4.8182,0,0,0,0,0,0,4.8331,4.8323,4.8294,4.8291,4.8296,4.8264,4.8258,4.8254,4.8218,4.8211,4.8225,4.8221,4.818,4.8177,4.8174,4.8194,4.8153,4.8152,4.8152,4.818,4.8181,4.8183,0,0,0,0,0,0,4.8332,4.8329,4.8296,4.8306,4.83,4.8265,4.8261,4.8254,4.8248,4.8212,4.8205,4.8226,4.8179,4.8175,4.8176,4.8192,4.8152,4.8151,4.8178,4.818,4.8182,4.8235,0,0,0,0,0,0,4.8334,4.833,4.8338,4.8306,4.83,4.83,4.8262,4.8254,4.8247,4.8242,4.8211,4.8205,4.8178,4.8178,4.8176,4.819,4.8151,4.8177,4.8179,4.8181,4.8232,4.8239,4.8245,0,0,0,0,0,4.8335,4.8354,4.8338,4.8335,4.8309,4.8301,4.8297,4.8267,4.8248,4.8255,4.8233,4.8206,4.8191,4.8178,4.8175,4.819,4.8176,4.8179,4.8181,4.8229,4.8237,4.8244,0,0,0,0,0,0,4.8386,4.8349,4.8331,4.8341,4.8325,4.8292,4.83,4.8277,4.8265,4.826,4.8222,4.8216,4.8222,4.8206,4.8193,4.8207,4.8179,4.8182,4.8217,4.8224,4.823,4.8233,4.815,0,0,0,0,0,4.8399,4.8397,4.8363,4.8375,4.8368,4.8335,4.8331,4.8309,4.829,4.8283,4.826,4.8242,4.8233,4.8228,4.8218,4.823,4.8222,4.8238,4.8244,4.825,4.8252,4.8256,4.8263,4.8192,4.8192,4.8192,0,0,4.8425,4.8404,4.8404,4.8385,4.8369,4.8367,4.833,4.8328,4.8326,4.8282,4.8282,4.8265,4.8242,4.8249,4.825,4.8236,4.827,4.8253,4.8258,4.8257,4.826,4.8267,4.8273,4.8194,4.8194,4.8193,0,0,4.847,4.8454,4.8462,4.8448,4.8426,4.8404,4.8406,4.8377,4.8364,4.8364,4.8331,4.8327,4.8313,4.8298,4.8289,4.8329,4.8304,4.8327,4.8359,4.8364,4.837,4.8374,4.8388,4.8393,4.8329,4.8329,4.8329,0,4.8504,4.8499,4.8468,4.8469,4.8461,4.8423,4.843,4.8418,4.8393,4.8388,4.8372,4.8354,4.8336,4.8338,4.8348,4.8342,4.8342,4.8329,4.8372,4.8376,4.838,4.8392,4.8398,4.8332,4.8332,4.8332,4.8331,0,4.8542,4.8539,4.8548,4.8526,4.852,4.8523,4.8492,4.8489,4.8468,4.8448,4.8448,4.8426,4.841,4.8409,4.8389,4.8409,4.84,4.8379,4.835,4.839,4.8401,4.8406,4.8336,4.8335,4.8335,4.8334,0,0,4.8617,4.8579,4.8583,4.8572,4.8546,4.8543,4.8545,4.8531,4.8528,4.8513,4.8513,4.8502,4.8482,4.8472,4.8449,4.8454,4.8486,4.8431,4.843,4.8441,4.8506,4.8522,4.8528,4.847,4.8471,4.8471,4.8508,0,4.8656,4.8658,4.8631,4.864,4.8637,4.8601,4.8602,4.8586,4.8568,4.8561,4.854,4.8533,4.8508,4.8501,4.8504,4.8482,4.8499,4.8479,4.8468,4.8468,4.8474,4.8534,4.855,4.8585,4.8512,4.8513,4.8513,0,4.8702,4.869,4.87,4.8673,4.867,4.8672,4.8657,4.8652,4.8633,4.8619,4.8608,4.8582,4.8582,4.8556,4.8553,4.8541,4.8535,4.8523,4.8524,4.8521,4.8492,4.8531,4.8596,4.8601,4.852,4.8519,4.8519,0,4.8755,4.8741,4.8745,4.8737,4.8706,4.8709,4.8696,4.8675,4.8668,4.8655,4.865,4.8637,4.8629,4.8619,4.859,4.8574,4.8591,4.8563,4.8578,4.8579,4.8582,4.8582,4.8646,4.8581,4.8581,4.8581,4.8581,0,4.8801,4.8807,4.8768,4.877,4.8777,4.8745,4.8752,4.8735,4.8717,4.8715,4.8683,4.8682,4.8644,4.8638,4.8616,4.8617,4.8614,4.8602,4.8595,4.8604,4.8605,4.8598,4.8595,4.8582,4.8582,4.8582,4.8581,0,4.886,4.8834,4.8835,4.8807,4.88,4.8805,4.878,4.878,4.8761,4.8758,4.8755,4.8724,4.8715,4.8686,4.8669,4.8654,4.8662,4.865,4.8669,4.8664,4.8681,4.868,4.8742,4.8748,4.868,4.8681,4.8681,0,4.889,4.8895,4.8867,4.8864,4.8852,4.8847,4.8841,4.881,4.8804,4.8783,4.8785,4.8774,4.8764,4.8751,4.8726,4.8713,4.87,4.8723,4.8698,4.8706,4.8699,4.8699,4.8699,4.8728,4.8729,4.873,4.873,0,4.8947,4.8934,4.8927,4.8915,4.8908,4.8897,4.8884,4.8882,4.8848,4.8843,4.8834,4.8826,4.881,4.8799,4.8782,4.8767,4.8743,4.8739,4.8741,4.8749,4.8759,4.8753,4.8682,4.8737,4.8736,4.8736,4.8736,4.8735,4.8992,4.8994,4.8975,4.8967,4.8955,4.8943,4.8942,4.8923,4.8915,4.89,4.8883,4.8876,4.8856,4.8831,4.8818,4.8812,4.8798,4.8802,4.8803,4.8804,4.8808,4.8762,4.8809,4.8808,4.8808,4.8808,4.8808,0,4.9046,4.9032,4.9026,4.9009,4.9003,4.8982,4.8967,4.8963,4.8957,4.8941,4.8932,4.8922,4.8911,4.8886,4.8872,4.8872,4.886,4.8869,4.8868,4.8865,4.8821,4.882,4.8879,4.8879,4.8879,4.8879,4.8879,4.8879,4.9074,4.9076,4.9061,4.9057,4.9043,4.9037,4.903,4.9019,4.9006,4.8996,4.8987,4.8971,4.8951,4.8936,4.8925,4.8918,4.8914,4.8927,4.8915,4.8875,4.8868,4.8862,4.886,4.8926,4.8926,4.8959,4.896,4.896]}]]